Regional Weather Roundup
Issued by NWS

Home | Current Version | Previous Version | Text Only | Print | Product List | Glossary Off
Versions: 1 2 3 4 5 6 7 8 9 10 11 12 13 14 15 16 17 18 19 20 21 22 23 24 25 26 27 28 29 30 31 32 33 34 35 36 37 38 39 40 41 42 43 44 45 46 47 48 49 50

000
ASUS43 KLSX 061459
RWRMO

WEATHER SUMMARY FOR MISSOURI
NATIONAL WEATHER SERVICE SPRINGFIELD MO
1000 AM CDT MON JUL 06 2015

NOTE: "FAIR" INDICATES FEW OR NO CLOUDS BELOW 12,000 FEET WITH NO
       SIGNIFICANT WEATHER AND/OR OBSTRUCTIONS TO VISIBILITY.
       CURRENT SKY AND/OR WEATHER CONDITIONS ARE NOT AVAILABLE FOR
       CHILLICOTHE AND FARMINGTON.

MOZ001>031-035>038-043-044-053-054-061600-
...NORTHERN AND WESTERN MISSOURI...

CITY           SKY/WX    TMP DP  RH WIND       PRES   REMARKS
KANSAS CTY INT CLOUDY    81  73  76 S13       29.92S
KANSAS C DTWN  PTSUNNY   82  72  71 SW12      29.91S
LEE`S SUMMIT   CLOUDY    80  72  76 S13G20    29.94F
ST JOSEPH      CLOUDY    80  73  79 S9        29.91R
CHILLICOTHE      N/A     79  72  79 S10       29.93F
KIRKSVILLE     CLOUDY    76  70  82 S10       29.94F

$$
MOZ066>068-077>081-088>096-101>105-061600-
...SOUTHWEST MISSOURI...

CITY           SKY/WX    TMP DP  RH WIND       PRES   REMARKS
SPRINGFIELD    PTSUNNY   79  73  82 S14       30.03R
JOPLIN         LGT RAIN  81  73  76 S15       29.99S

$$
MOZ032>034-039>042-045>050-055>058-069>072-061600-
...CENTRAL MISSOURI...

CITY           SKY/WX    TMP DP  RH WIND       PRES   REMARKS
COLUMBIA       CLOUDY    80  73  79 S12       30.00R
JEFFERSON CITY CLOUDY    81  73  76 S7        29.99R
ROLLA          PTSUNNY   80  73  79 SW9       30.02S
SEDALIA        CLOUDY    81  73  76 SW12      29.99R
OSAGE BEACH    PTSUNNY   81  72  74 SW13      30.02R

$$
MOZ051-052-059>065-061600-
...EAST CENTRAL MISSOURI...

CITY           SKY/WX    TMP DP  RH WIND       PRES   REMARKS
ST LOUIS INTL  PTSUNNY   84  72  67 SW8       30.02S
SPIRIT OF STL  PTSUNNY   83  74  74 MISG      30.00S
ST CHARLES     MOSUNNY   82  74  76 S10       30.00S

$$
MOZ072>076-082>087-097>100-106>115-061600-
...SOUTH CENTRAL AND SOUTHEAST MISSOURI...

CITY           SKY/WX    TMP DP  RH WIND       PRES   REMARKS
CAPE GIRARDEAU CLOUDY    76  71  85 SW8       30.08S
FARMINGTON     CLOUDY    77  72  83 S10       30.11S
POPLAR BLUFF   CLOUDY    74  70  87 S8        30.08R
WEST PLAINS    MOSUNNY   78  70  76 S7        30.10R

$$



USA.gov is the U.S. government's official web portal to all federal, state and local government web resources and services.